Elizabeth City Regional Airport & Coast Guard Air Station Elizabeth City US
ICAO: KECG
IATA: ECG
Category: Medium
Scheduled Services: No

Elevation: 12 ft
TransAlt. 18000 ft.

Airport Communications:
NORFOLK APP/DEP:119.55
AIR:34.5
ASOS:118.525
CTAF:120.5
GND:121.9
TWR:120.5
UNICOM:122.95

KECG Zoom In..

If you have problems with the map follow the link
https://www.worldairports.se/pages/airport.php?
ICAO=KECG

Runways:

(A) RW 01 length 4518 ft width 150 ft
---- / hdg 9

(B) RW 10 length 7219 ft width 150 ft
ILS 111.35 / hdg 99

(C) RW 19 length 4518 ft width 150 ft
---- / hdg 189

(D) RW 28 length 7219 ft width 150 ft
---- / hdg 279

Location; KECG
Day. 21 / Time. 19.54 Zulu
* Altimeter: 30.38
* Temperature: 03° c. 37.4°f.
* Wind from: 010° Speed 16 kn.
Dewpoint: -07° c.
Visibility: 10 Statute Miles.
Clouds: Clear (automated report).

KECG 211954Z 01016KT 10SM CLR 03/M07 A3038 RMK AO2 SLP289 T00331067


Wind From 010°
Speed 16 kn.

 
 
jpsmedia worldairports.se 2020   terms of use